Hurricane Symbol View the latest observations near East Pacific Tropical Storm Bud.

Station HRBM4 - 9075014 - Harbor Beach, MI Image indicating link to RSS feed of recent meteorological observations for station HRBM4


Conditions at HRBM4 as of
(8:30 am EDT)
1230 GMT on 07/25/2024:
     

Click on the graph icon in the table below to see a time series plot of the last five days of that observation.

5-day plot - Wind Direction Wind Direction (WDIR): NE ( 40 deg true )
5-day plot - Wind Speed Wind Speed (WSPD): 2.9 kts
5-day plot - Wind Gust Wind Gust (GST): 5.1 kts
5-day plot - Atmospheric Pressure Atmospheric Pressure (PRES):30.19 in
5-day plot - Air Temperature Air Temperature (ATMP): 66.7 °F
5-day plot - Water Temperature Water Temperature (WTMP): 69.6 °F
5-day plot - Dew Point Dew Point (DEWP): 58.3 °F
5-day plot - Wind Speed at 10 Meters Wind Speed at 10 meters (WSPD10M): 3.9 kts
5-day plot - Wind Speed at 20 Meters Wind Speed at 20 meters (WSPD20M): 3.9 kts
5-day plot -  Wind Speed, Wind Gust and Atmospheric Pressure Combined plot of Wind Speed, Gust, and Air Pressure
NOS Water Level Observation Network Water Level
Previous observations
TIME
(EDT)
5-day plot - Wind Direction
WDIR
 
5-day plot - Wind Speed
WSPD
kts
5-day plot - Wind Gust
GST
kts
5-day plot - Wave Height
WVHT
ft
5-day plot - Dominant Wave Period
DPD
sec
5-day plot - Average Wave Period
APD
sec
5-day plot - Mean Wave Direction
MWD
 
5-day plot - Atmospheric Pressure
PRES
in
5-day plot - Pressure Tendency
PTDY
in
5-day plot - Air Temperature
ATMP
°F
5-day plot - Water Temperature
WTMP
°F
5-day plot - Dew Point
DEWP
°F
5-day plot - Salinity
SAL
psu
5-day plot - Visibility
VIS
nmi
5-day plot - Tide (above MLLW)
TIDE
ft
2024-07-25 08:24 amNNE 2.9 2.9----30.19- 66.0 69.6 59.0---
2024-07-25 08:18 am N 1.0 1.9----30.19- 66.2 69.6 59.5---
2024-07-25 08:12 am NW 1.0 2.9----30.19- 64.8 69.6 59.7---
2024-07-25 08:06 am NW 1.0 2.9----30.19- 64.6 69.6 59.4---
2024-07-25 08:00 am NW 1.0 1.9----30.19+0.04 64.4 69.6 59.4---
2024-07-25 07:54 amWSW 1.9 2.9----30.19- 64.2 69.6 59.7---
2024-07-25 07:48 amWSW 2.9 2.9----30.19-- 69.6----
2024-07-25 07:42 am W 1.9 1.9----30.19-- 69.6----
2024-07-25 07:36 am W 1.9 2.9----30.18-- 69.6----
2024-07-25 07:30 amWNW 1.9 4.1----30.18- 62.8 69.6 59.4---
2024-07-25 07:24 am W 2.9 4.1----30.18- 62.1 69.6 59.0---
2024-07-25 07:18 am W 2.9 4.1----30.18- 62.1 69.6 59.2---
2024-07-25 07:12 am W 1.9 4.1----30.18- 61.7 69.6 59.0---
2024-07-25 07:06 am W 2.9 4.1----30.18- 61.5 69.6 59.0---
2024-07-25 07:00 am W 2.9 4.1----30.17+0.04 61.2 69.6 58.6---
2024-07-25 06:54 am W 2.9 4.1----30.17- 61.2 69.6 58.5---
2024-07-25 06:48 am W 2.9 4.1----30.17- 61.2 69.6 58.5---
2024-07-25 06:42 am W 2.9 4.1----30.17- 61.2 69.6 58.5---
2024-07-25 06:36 am W 1.9 4.1----30.17- 61.7 69.6 58.6---
2024-07-25 06:30 am NW 2.9 5.1----30.16- 61.9 69.6 58.6---
2024-07-25 06:24 am NW 2.9 4.1----30.17- 61.7 69.6 59.0---
2024-07-25 06:18 amWNW 2.9 5.1----30.16- 61.5 69.6 58.8---
2024-07-25 06:12 am W 2.9 4.1----30.16- 61.2 69.6 58.5---
2024-07-25 06:06 amWNW 1.9 4.1----30.16- 62.2 69.6 59.2---
2024-07-25 06:00 amWNW 1.9 4.1----30.16+0.03 62.4 69.6 59.5---
2024-07-25 05:54 amWNW 2.9 2.9----30.16- 61.7 69.6 59.2---
2024-07-25 05:48 am W 1.9 4.1----30.16-- 69.6----
2024-07-25 05:42 am W 2.9 4.1----30.16-- 69.6----
2024-07-25 05:36 am W 2.9 4.1----30.16-- 69.6----
2024-07-25 05:30 am W 2.9 4.1----30.15- 61.7 69.6 58.5---
2024-07-25 05:24 amWNW 2.9 5.1----30.15- 63.0 69.6 59.0---
2024-07-25 05:18 amWNW 2.9 5.1----30.15- 63.3 69.6 59.0---
2024-07-25 05:12 am NW 4.1 5.1----30.15- 63.1 69.6 59.2---
2024-07-25 05:06 am NW 4.1 5.1----30.15- 63.0 69.6 59.2---
2024-07-25 05:00 am NW 2.9 5.1----30.15+0.01 62.8 69.6 59.0---
2024-07-25 04:54 am NW 2.9 5.1----30.14- 63.0 69.6 59.0---
2024-07-25 04:48 am NW 5.1 6.0----30.14-- 69.6----
2024-07-25 04:42 am NW 4.1 6.0----30.14-- 69.6----
2024-07-25 04:36 amNNW 4.1 6.0----30.14-- 69.6----
2024-07-25 04:30 am NW 4.1 5.1----30.14- 64.0 69.6 59.9---
2024-07-25 04:24 am NW 4.1 6.0----30.14- 63.9 69.8 59.7---
2024-07-25 04:18 am NW 4.1 6.0----30.14- 64.2 69.6 60.3---
2024-07-25 04:12 am NW 4.1 6.0----30.14- 64.0 69.6 60.3---
2024-07-25 04:06 am NW 1.9 5.1----30.14- 63.5 69.6 60.1---
2024-07-25 04:00 amWNW 2.9 5.1----30.14+0.01 63.5 69.6 60.1---
2024-07-25 03:54 amWNW 2.9 5.1----30.14- 63.3 69.6 60.3---
2024-07-25 03:48 am NW 2.9 5.1----30.14-- 69.6----
2024-07-25 03:42 amWNW 2.9 5.1----30.14-- 69.8----
2024-07-25 03:36 amWNW 2.9 5.1----30.14-- 69.8----
2024-07-25 03:30 amWNW 4.1 6.0----30.14- 63.7 69.8 60.8---
2024-07-25 03:24 amWNW 2.9 7.0----30.14- 63.1 69.8 60.6---
2024-07-25 03:18 am W 5.1 7.0----30.14- 62.4 69.8 59.7---
2024-07-25 03:12 am W 6.0 7.0----30.14- 62.8 69.8 59.5---
2024-07-25 03:06 am W 4.1 6.0----30.14- 64.0 69.8 60.8---
2024-07-25 03:00 amWNW 4.1 7.0----30.14+0.01 63.9 69.8 61.0---
2024-07-25 02:54 am W 5.1 6.0----30.14- 63.3 69.8 60.4---
2024-07-25 02:48 am W 4.1 5.1----30.14- 63.7 69.8 61.0---
2024-07-25 02:42 am W 2.9 6.0----30.14- 63.1 69.8 60.4---
2024-07-25 02:36 am W 4.1 6.0----30.14- 63.0 69.8 60.3---
2024-07-25 02:30 am W 5.1 7.0----30.14- 62.8 69.8 60.1---
2024-07-25 02:24 am W 5.1 6.0----30.13- 62.6 69.8 60.1---
2024-07-25 02:18 am W 5.1 6.0----30.13- 62.6 69.8 60.1---
2024-07-25 02:12 am W 5.1 7.0----30.13- 62.6 69.8 59.9---
2024-07-25 02:06 am W 5.1 7.0----30.13- 62.4 69.8 59.7---
2024-07-25 02:00 am W 5.1 6.0----30.13+0.02 62.2 69.8 59.7---
2024-07-25 01:54 am W 5.1 7.0----30.13- 62.2 69.8 59.5---
2024-07-25 01:48 am W 6.0 7.0----30.13- 62.4 69.8 59.5---
2024-07-25 01:42 am W 5.1 6.0----30.13- 62.4 69.8 59.5---
2024-07-25 01:36 am W 5.1 6.0----30.13- 62.8 69.8 59.7---
2024-07-25 01:30 am W 5.1 6.0----30.13- 63.1 69.8 59.9---
2024-07-25 01:24 am W 5.1 6.0----30.13- 63.1 69.8 59.7---
2024-07-25 01:18 am W 5.1 7.0----30.13- 63.5 69.8 59.9---
2024-07-25 01:12 am W 5.1 6.0----30.13- 63.7 69.8 60.1---
2024-07-25 01:06 am W 5.1 6.0----30.13- 63.5 69.8 59.5---
2024-07-25 01:00 am W 4.1 6.0----30.13+0.02 64.0 69.8 59.9---
2024-07-25 12:54 amWNW 5.1 7.0----30.13- 64.6 69.8 60.1---
2024-07-25 12:48 am W 4.1 5.1----30.13- 64.2 69.8 59.9---
2024-07-25 12:42 am W 4.1 6.0----30.13- 64.8 69.8 59.9---
2024-07-25 12:36 amWNW 4.1 7.0----30.13- 65.1 69.8 60.3---
2024-07-25 12:30 am W 4.1 7.0----30.13- 64.9 69.8 60.1---
2024-07-25 12:24 amWNW 4.1 6.0----30.13- 65.1 69.8 60.3---
2024-07-25 12:18 am W 4.1 7.0----30.12- 65.1 69.8 59.9---
2024-07-25 12:12 am W 5.1 7.0----30.12- 65.3 69.8 60.3---
2024-07-25 12:06 amWNW 5.1 7.0----30.12- 65.3 69.8 59.9---
2024-07-25 12:00 amWNW 4.1 7.0----30.12+0.03 65.7 69.8 59.9---
2024-07-24 11:54 pmWNW 5.1 8.0----30.12- 65.8 69.8 59.7---
2024-07-24 11:48 pmWNW 5.1 7.0----30.12-- 69.8----
2024-07-24 11:42 pmWNW 5.1 8.0----30.12-- 69.8----
2024-07-24 11:36 pmWNW 4.1 7.0----30.12-- 69.8----
2024-07-24 11:30 pmWNW 5.1 7.0----30.12- 66.2 69.8 59.4---
2024-07-24 11:24 pmWNW 5.1 8.0----30.12- 66.0 69.8 59.4---
2024-07-24 11:18 pmWNW 5.1 7.0----30.12- 66.0 70.0 59.4---
2024-07-24 11:12 pmWNW 5.1 6.0----30.12- 66.0 69.8 59.5---
2024-07-24 11:06 pmWNW 5.1 6.0----30.11- 65.7 70.0 59.7---
2024-07-24 11:00 pm NW 5.1 7.0----30.11+0.03 65.7 70.0 59.7---
2024-07-24 10:54 pm NW 5.1 7.0----30.11- 65.7 70.0 59.7---
2024-07-24 10:48 pmWNW 5.1 7.0----30.11-- 70.0----
2024-07-24 10:42 pm NW 2.9 9.9----30.11-- 70.0----
2024-07-24 10:36 pm N 8.9 11.1----30.11-- 70.0----
2024-07-24 10:30 pm N 8.0 12.0----30.11- 67.8 69.8 60.6---
2024-07-24 10:24 pm N 8.9 12.0----30.11- 67.6 70.0 59.9---
2024-07-24 10:18 pm N 11.1 12.0----30.11- 67.8 70.0 60.3---
2024-07-24 10:12 pm N 8.9 14.0----30.11- 67.6 70.0 59.9---
2024-07-24 10:06 pm N 12.0 15.0----30.11- 67.8 70.0 60.4---
2024-07-24 10:00 pm N 11.1 12.0----30.11+0.02 67.8 70.0 60.4---
2024-07-24 09:54 pm N 9.9 13.0----30.11- 67.6 70.0 60.6---
2024-07-24 09:48 pm N 9.9 13.0----30.11- 67.6 70.0 61.3---
2024-07-24 09:42 pm N 9.9 13.0----30.11- 67.6 70.0 62.2---
2024-07-24 09:36 pm N 12.0 14.0----30.10- 67.5 70.0 61.7---
2024-07-24 09:30 pm N 11.1 13.0----30.10- 67.6 70.0 62.2---
2024-07-24 09:24 pm N 11.1 13.0----30.10- 67.5 70.0 62.1---
2024-07-24 09:18 pm N 9.9 12.0----30.10- 67.6 70.0 62.4---
2024-07-24 09:12 pm N 9.9 14.0----30.10- 67.6 70.0 62.1---
2024-07-24 09:06 pm N 9.9 13.0----30.09- 67.5 70.0 61.9---
2024-07-24 09:00 pm N 9.9 12.0----30.09+0.02 67.6 70.0 62.1---
2024-07-24 08:54 pm N 11.1 14.0----30.09- 67.5 70.0 61.9---
2024-07-24 08:48 pm N 12.0 14.0----30.09- 67.5 70.0 61.9---
2024-07-24 08:42 pm N 11.1 15.0----30.09- 67.8 70.0 61.9---
2024-07-24 08:36 pm N 12.0 14.0----30.09- 67.6 70.0 61.9---
2024-07-24 08:30 pm N 9.9 13.0----30.09- 67.8 70.0 62.2---
2024-07-24 08:24 pm N 9.9 12.0----30.09- 67.6 70.0 61.9---
2024-07-24 08:18 pm N 9.9 13.0----30.09- 67.8 70.0 61.9---
2024-07-24 08:12 pm N 8.9 12.0----30.09- 67.8 70.0 62.4---
2024-07-24 08:06 pm N 9.9 12.0----30.09- 67.6 70.0 62.1---
2024-07-24 08:00 pm N 11.1 12.0----30.09+0.02 67.6 70.0 61.9---
2024-07-24 07:54 pm N 9.9 13.0----30.09- 67.6 70.0 61.9---
2024-07-24 07:48 pm N 11.1 13.0----30.09- 67.6 70.0 62.2---
2024-07-24 07:42 pm N 9.9 12.0----30.09- 67.5 70.0 62.4---
2024-07-24 07:36 pm N 9.9 13.0----30.09- 67.5 70.0 62.2---
2024-07-24 07:30 pm N 12.0 13.0----30.09- 67.3 70.0 61.9---
2024-07-24 07:24 pm N 9.9 13.0----30.09- 67.6 70.0 62.2---
2024-07-24 07:18 pm N 9.9 13.0----30.09- 67.5 70.0 61.9---
2024-07-24 07:12 pm N 11.1 12.0----30.08- 67.5 70.0 62.1---
2024-07-24 07:06 pm N 11.1 15.0----30.08- 67.5 70.0 62.2---
2024-07-24 07:00 pm N 13.0 15.0----30.08+0.02 67.5 70.0 62.1---
2024-07-24 06:54 pm N 12.0 15.0----30.08- 67.5 70.0 62.4---
2024-07-24 06:48 pm N 12.0 14.0----30.08-- 70.0----
2024-07-24 06:42 pm N 12.0 14.0----30.08-- 70.0----
2024-07-24 06:36 pm N 12.0 13.0----30.08-- 70.0----
2024-07-24 06:30 pm N 12.0 14.0----30.08- 67.5 70.0 62.6---
2024-07-24 06:24 pm N 13.0 15.0----30.08- 67.1 70.0 62.2---
2024-07-24 06:18 pm N 13.0 15.0----30.08- 67.3 70.0 62.8---
2024-07-24 06:12 pm N 12.0 15.0----30.08- 67.1 70.0 62.8---
2024-07-24 06:06 pm N 12.0 14.0----30.07- 67.1 70.0 62.6---
2024-07-24 06:00 pm N 13.0 15.0----30.07+0.02 67.5 70.0 63.0---
2024-07-24 05:54 pm N 13.0 15.0----30.07- 67.1 70.0 62.4---
2024-07-24 05:48 pm N 13.0 15.9----30.07- 67.5 70.0 62.6---
2024-07-24 05:42 pm N 12.0 15.0----30.07- 67.5 70.0 62.8---
2024-07-24 05:36 pm N 12.0 14.0----30.07- 67.6 70.0 62.8---
2024-07-24 05:30 pm N 12.0 14.0----30.07- 67.6 70.0 62.6---
2024-07-24 05:24 pm N 11.1 15.0----30.07- 68.2 70.0 63.3---
2024-07-24 05:18 pm N 12.0 14.0----30.07- 67.6 70.0 62.8---
2024-07-24 05:12 pm N 12.0 13.0----30.06- 67.8 70.0 62.8---
2024-07-24 05:06 pm N 11.1 14.0----30.07- 68.0 70.0 63.0---
2024-07-24 05:00 pm N 13.0 15.0----30.07+0.02 67.6 70.0 62.6---
2024-07-24 04:54 pm N 12.0 14.0----30.06- 67.8 70.0 63.1---
2024-07-24 04:48 pm N 12.0 14.0----30.07-- 70.0----
2024-07-24 04:42 pm N 12.0 14.0----30.07-- 70.0----
2024-07-24 04:36 pm N 11.1 13.0----30.06-- 70.0----
2024-07-24 04:30 pm N 12.0 13.0----30.06- 67.8 70.0 63.1---
2024-07-24 04:24 pm N 11.1 14.0----30.06- 68.0 70.0 63.3---
2024-07-24 04:18 pm N 13.0 15.0----30.06- 67.8 70.0 63.1---
2024-07-24 04:12 pm N 12.0 15.0----30.06- 68.0 70.0 63.5---
2024-07-24 04:06 pm N 12.0 15.0----30.06- 67.8 70.0 63.3---
2024-07-24 04:00 pm N 13.0 15.0----30.06+0.01 68.0 70.0 63.3---
2024-07-24 03:54 pm N 12.0 14.0----30.06- 67.8 70.0 63.1---
2024-07-24 03:48 pm N 13.0 15.9----30.06- 68.2 70.0 63.3---
2024-07-24 03:42 pm N 12.0 15.0----30.06- 68.0 70.0 63.1---
2024-07-24 03:36 pm N 12.0 14.0----30.06- 68.2 70.0 63.1---
2024-07-24 03:30 pm N 12.0 15.9----30.06- 68.0 70.0 63.0---
2024-07-24 03:24 pm N 13.0 15.0----30.05- 68.2 70.0 63.1---
2024-07-24 03:18 pm N 13.0 15.9----30.05- 68.2 70.0 63.1---
2024-07-24 03:12 pm N 13.0 15.9----30.05- 68.0 70.0 62.8---
2024-07-24 03:06 pm N 12.0 15.0----30.05- 68.2 70.0 63.0---
2024-07-24 03:00 pm N 13.0 15.0----30.05+0.02 68.2 70.0 63.1---
2024-07-24 02:54 pm N 14.0 15.9----30.05- 68.2 70.2 63.5---
2024-07-24 02:48 pm N 14.0 17.1----30.05- 68.2 70.0 63.5---
2024-07-24 02:42 pm N 15.0 17.1----30.05- 68.0 70.2 63.3---
2024-07-24 02:36 pm N 14.0 17.1----30.05- 68.0 70.2 63.7---
2024-07-24 02:30 pm N 14.0 17.1----30.05- 67.8 70.2 63.5---
2024-07-24 02:24 pm N 14.0 17.1----30.05- 68.0 70.2 63.7---
2024-07-24 02:18 pm N 15.0 18.1----30.04- 67.8 70.2 63.5---
2024-07-24 02:12 pm N 15.9 19.0----30.04- 67.6 70.2 63.3---
2024-07-24 02:06 pm N 15.9 19.0----30.04- 68.2 70.2 63.7---
2024-07-24 02:00 pm N 14.0 17.1----30.04+0.03 68.4 70.2 63.5---
2024-07-24 01:54 pm N 14.0 18.1----30.04- 68.2 70.2 63.3---
2024-07-24 01:48 pm N 13.0 15.9----30.04- 68.2 70.2 63.1---
2024-07-24 01:42 pm N 14.0 17.1----30.04- 68.2 70.2 63.3---
2024-07-24 01:36 pmNNW 7.0 17.1----30.05- 68.4 70.2 64.0---
2024-07-24 01:30 pm N 15.0 17.1----30.04- 67.8 70.2 63.9---
2024-07-24 01:24 pm N 13.0 15.0----30.04- 68.0 70.2 64.4---
2024-07-24 01:18 pmNNW 8.9 12.0----30.04- 67.8 70.2 64.4---
2024-07-24 01:12 pmNNW 7.0 13.0----30.04- 67.5 70.2 64.4---
2024-07-24 01:06 pmNNW 8.0 15.0----30.04- 67.5 70.2 64.4---
2024-07-24 01:00 pmNNW 11.1 17.1----30.04+0.04 67.1 70.2 63.3---
2024-07-24 12:54 pmNNW 5.1 11.1----30.04- 68.0 70.2 64.4---
2024-07-24 12:48 pmNNW 8.0 13.0----30.04-- 70.2----
2024-07-24 12:42 pmNNW 7.0 12.0----30.04-- 70.2----
2024-07-24 12:36 pmNNW 8.0 12.0----30.03-- 70.3----
2024-07-24 12:30 pmNNW 5.1 11.1----30.03- 67.8 70.2 64.4---
2024-07-24 12:24 pmNNW 7.0 11.1----30.03- 67.5 70.3 63.7---
2024-07-24 12:18 pm NW 5.1 12.0----30.03- 68.4 70.2 64.2---
2024-07-24 12:12 pmNNW 5.1 14.0----30.03- 68.7 70.3 64.9---
2024-07-24 12:06 pmNNW 9.9 14.0----30.03- 68.2 70.3 64.2---
2024-07-24 12:00 pmNNW 7.0 13.0----30.03+0.04 68.5 70.3 64.8---
2024-07-24 11:54 amNNW 12.0 15.0----30.03- 68.0 70.2 64.0---
2024-07-24 11:48 amNNW 9.9 15.0----30.03-- 70.2----
2024-07-24 11:42 amNNW 6.0 9.9----30.02-- 70.2----
2024-07-24 11:36 am N 13.0 17.1----30.02-- 70.3----
2024-07-24 11:30 am N 14.0 15.9----30.02- 68.2 70.3 63.9---
2024-07-24 11:24 am N 12.0 15.0----30.02- 68.5 70.3 64.0---
2024-07-24 11:18 amNNW 9.9 15.9----30.02- 68.5 70.3 64.4---
2024-07-24 11:12 am N 13.0 15.0----30.02- 68.0 70.3 64.0---
2024-07-24 11:06 am N 11.1 15.9----30.02- 68.4 70.3 64.4---
2024-07-24 11:00 am N 11.1 15.0----30.02+0.04 68.4 70.3 64.4---
2024-07-24 10:54 amNNW 8.0 14.0----30.02- 68.4 70.3 64.6---
2024-07-24 10:48 am N 12.0 15.0----30.02- 68.2 70.3----
2024-07-24 10:42 am N 8.9 14.0----30.02- 68.7 70.3----
2024-07-24 10:36 amNNW 8.0 14.0----30.02- 68.5 70.3----
2024-07-24 10:30 am N 8.0 11.1----30.02- 68.9 70.3 64.4---
2024-07-24 10:24 amNNW 5.1 12.0----30.01- 69.3 70.3 64.8---
2024-07-24 10:18 amNNW 8.0 13.0----30.01- 68.9 70.3 64.2---
2024-07-24 10:12 amNNW 6.0 12.0----30.01- 68.9 70.3 64.6---
2024-07-24 10:06 amNNW 6.0 9.9----30.01- 68.9 70.3 64.8---
2024-07-24 10:00 am N 6.0 11.1----30.01+0.04 69.3 70.3 65.7---
2024-07-24 09:54 am NW 6.0 8.0----30.01- 68.7 70.3 65.3---
2024-07-24 09:48 amNNW 2.9 9.9----30.01-- 70.5----
2024-07-24 09:42 amNNW 8.0 12.0----30.01-- 70.3----
2024-07-24 09:36 amNNW 2.9 8.0----30.01-- 70.5----
2024-07-24 09:30 am NW 4.1 11.1----30.00- 68.7 70.3 65.8---
2024-07-24 09:24 am NW 4.1 7.0----30.00- 68.5 70.5 65.8---
2024-07-24 09:18 am NW 5.1 8.0----30.00- 68.4 70.5 65.8---
2024-07-24 09:12 am NW 4.1 7.0----30.00- 68.2 70.5 65.7---
2024-07-24 09:06 am NW 4.1 7.0----30.00- 68.0 70.5 65.7---
2024-07-24 09:00 am NW 2.9 8.9----29.99+0.04 67.8 70.5 65.7---
2024-07-24 08:54 am NW 4.1 7.0----30.00- 67.8 70.3 65.7---